Location: Houghton
(47.1220°N, 88.5690°W)
Time: 07:05:41
(UTC-04:00)

OTV 5 (USA 277) - Visible Passes

Search period start: 22 June 2018 00:00
Search period end: 02 July 2018 00:00
Orbit: 313 x 320 km, 54.5° (Epoch: 21 June)

Date Brightness Start Highest point End Pass type
(mag) Time Alt. Az. Time Alt. Az. Time Alt. Az.
22 Jun ? 01:16:52 10° NW 01:19:05 22° NNE 01:21:18 10° ENE visible
22 Jun ? 02:50:57 10° WNW 02:52:38 34° WNW 02:52:38 34° WNW visible
22 Jun ? 23:56:55 10° NW 23:58:49 17° N 00:00:42 10° NE visible
23 Jun ? 01:31:11 10° NW 01:33:42 33° NNE 01:34:38 25° ENE visible
23 Jun ? 22:36:28 10° WNW 22:38:31 19° N 22:40:33 10° NE visible
24 Jun ? 00:11:26 10° NW 00:13:31 19° N 00:15:35 10° ENE visible
24 Jun ? 01:45:31 10° NW 01:47:42 49° NNW 01:47:42 49° NNW visible
24 Jun ? 22:51:20 10° NW 22:53:13 17° N 22:55:06 10° NE visible
25 Jun ? 00:25:48 10° NW 00:28:10 26° NNE 00:30:05 13° ENE visible
25 Jun ? 01:59:58 10° WNW 02:00:55 19° WNW 02:00:55 19° WNW visible
25 Jun ? 23:05:59 10° NW 23:07:55 18° N 23:09:53 10° NE visible
26 Jun ? 00:40:07 10° NW 00:42:44 44° NNE 00:43:24 35° ENE visible
26 Jun ? 23:20:24 10° NW 23:22:37 22° NNE 23:24:49 10° ENE visible
27 Jun ? 00:54:29 10° WNW 00:56:47 60° WNW 00:56:47 60° WNW visible
27 Jun ? 23:34:43 10° NW 23:37:13 32° NNE 23:39:24 12° E visible
28 Jun ? 01:09:03 10° WNW 01:10:14 20° W 01:10:14 20° W visible
28 Jun ? 23:49:03 10° NW 23:51:45 64° NNE 23:52:54 29° ESE visible
29 Jun ? 22:29:20 10° NW 22:31:41 26° NNE 22:34:02 10° ENE visible
30 Jun ? 00:03:30 10° WNW 00:06:09 52° SW 00:06:27 48° S visible
30 Jun ? 22:43:39 10° NW 22:46:15 43° NNE 22:48:51 10° E visible
01 Jul ? 00:18:16 10° W 00:20:03 21° WSW 00:20:03 21° WSW visible
01 Jul ? 22:58:01 10° WNW 23:00:43 85° SW 23:02:51 15° SE visible
